Wind_Speed
18 16 15 14 15 16 16 17 17 17 18 19 20 20 20 20 21 21 19 18 15 14 11 9 7 5 1 7 1 3 13 20 24 19 19 12 10 5 4 2 4 4 1 6 7 9 7
17 16 15 15 16 17 18 18 18 19 19 20 21 20 19 20 21 20 18 16 15 13 11 8 4 2 5 11 3 8 20 25 19 19 16 10 1 2 6 2 4 1 5 11 10 9 8
16 15 15 16 17 18 19 19 20 20 21 22 21 19 20 22 20 19 17 16 15 13 10 6 4 3 8 0 1 10 21 23 18 15 11 8 9 5 1 1 2 9 10 8 8 8 7
16 16 16 17 18 18 19 19 20 20 20 21 20 20 21 21 20 18 17 17 14 10 6 5 5 4 4 2 4 15 20 19 16 11 2 5 6 4 3 6 7 5 8 7 9 10 5
17 18 19 19 20 20 20 20 20 21 21 22 20 23 23 20 19 18 17 11 3 3 6 8 4 6 4 3 9 16 19 18 19 12 5 3 6 2 6 11 10 9 2 5 9 11 7
17 18 19 21 21 22 22 21 22 23 24 24 22 24 22 19 18 17 10 3 6 8 6 3 2 5 6 6 11 16 18 16 16 13 8 9 6 4 5 5 4 4 3 4 9 11 12
17 18 20 20 21 22 23 24 25 25 25 26 24 26 22 19 19 14 3 2 5 6 9 4 3 1 7 7 10 16 20 17 12 13 13 14 10 12 17 7 4 8 7 6 9 8 6
17 18 19 20 21 22 23 24 25 27 27 28 26 28 22 19 16 2 4 5 4 5 5 12 8 4 4 2 10 14 23 15 16 16 16 8 14 6 7 10 10 9 7 4 1 4 10
19 20 20 21 22 22 23 25 26 28 28 29 29 28 22 17 5 2 4 0 2 3 6 7 7 10 9 10 12 20 23 18 18 19 16 16 3 12 9 9 9 7 4 0 10 9 13
20 21 21 22 24 24 25 27 28 30 31 31 31 27 22 10 2 1 4 3 6 4 5 11 9 8 10 8 9 20 28 16 12 18 18 17 10 10 9 8 7 8 1 5 5 7 7
21 21 21 23 24 25 27 28 31 32 32 32 32 27 20 5 5 5 4 3 1 5 6 9 7 6 11 13 16 14 26 15 17 16 11 15 12 15 14 13 6 4 2 5 7 10 8
21 23 22 23 25 26 28 30 31 33 34 33 32 24 14 1 6 4 2 2 5 6 4 7 7 11 15 15 8 14 19 13 12 19 16 16 3 8 4 3 5 7 5 6 5 8 8
22 24 23 24 25 27 29 31 33 35 36 35 29 14 2 6 2 3 3 5 6 7 3 8 7 10 17 15 12 19 22 22 16 17 18 16 14 5 9 9 8 9 10 6 4 4 3
22 25 23 24 25 27 30 32 34 37 37 36 23 1 1 4 2 2 8 6 8 2 2 4 3 8 15 17 13 14 21 21 24 20 15 15 15 14 13 13 8 11 10 7 8 5 9
22 25 23 24 25 27 30 33 35 38 38 32 10 1 2 1 5 4 7 8 3 2 1 3 6 11 12 14 7 13 17 22 24 21 19 14 18 12 8 6 8 8 8 4 11 13 8
20 23 24 24 25 27 30 33 35 38 36 24 5 3 3 3 5 7 7 8 2 1 4 5 8 9 15 17 14 14 15 11 21 23 21 14 10 16 10 7 5 11 3 6 5 4 5
19 22 25 23 24 26 29 32 35 39 34 18 3 4 3 3 2 6 9 4 3 2 4 3 4 7 8 15 18 18 14 4 9 15 18 19 13 9 12 14 14 7 10 10 9 7 7
20 21 26 22 23 25 28 31 34 38 35 12 5 4 2 4 6 3 8 3 1 4 1 3 3 4 8 9 13 14 15 9 5 10 20 20 12 14 15 16 13 21 15 14 9 8 5
18 20 24 22 22 24 27 30 31 34 28 10 5 2 2 5 6 8 3 5 2 5 2 2 3 2 2 6 7 7 6 4 4 12 11 18 12 13 16 12 7 13 12 13 13 4 8
18 19 22 23 21 23 25 28 30 31 23 5 4 3 4 4 2 7 6 7 8 3 2 1 2 4 5 6 2 8 10 5 4 2 5 3 19 17 14 16 15 17 16 17 15 10 8
18 18 19 22 19 21 23 27 28 29 20 4 2 3 3 2 6 6 5 1 9 7 2 2 4 4 5 7 6 6 5 8 6 4 5 8 17 18 17 16 13 10 18 17 16 17 14
17 18 17 21 19 20 21 25 27 27 13 3 4 4 1 2 2 6 6 9 8 5 3 6 6 2 3 3 5 8 5 4 3 4 6 6 9 4 14 18 17 18 19 20 18 19 16
17 18 15 18 17 17 19 21 24 26 13 6 4 1 4 4 3 6 3 2 5 2 2 2 1 3 5 6 5 5 4 2 1 2 3 4 6 9 14 13 14 20 20 20 20 16 16
19 15 14 16 16 15 16 17 19 21 15 7 6 5 4 2 5 3 1 3 4 1 3 1 2 6 5 7 8 7 7 7 7 8 7 4 7 4 10 7 19 12 15 19 21 16 19
18 15 15 14 14 12 13 13 15 16 15 7 6 4 3 4 3 5 5 4 4 4 5 3 2 3 5 6 5 7 8 7 11 13 13 10 7 7 10 13 14 10 9 12 13 20 20
17 15 15 12 12 11 11 11 11 13 13 5 7 6 3 5 2 3 4 4 7 7 5 5 2 4 4 4 6 9 9 11 11 8 9 13 12 9 9 14 17 12 10 1 9 13 2
15 16 15 8 11 10 9 9 9 10 11 5 4 7 4 4 2 4 3 3 1 3 5 2 4 5 4 6 9 11 12 6 11 15 7 12 11 16 14 14 11 11 3 4 14 3 5
15 16 13 8 9 9 8 7 7 7 8 6 2 6 7 3 4 4 4 5 4 5 6 5 5 6 5 8 7 6 8 10 14 13 15 13 10 13 14 18 22 3 5 12 3 6 4
17 16 12 9 9 8 7 7 6 6 6 5 1 4 6 6 5 5 10 11 10 10 8 4 5 2 2 6 4 4 5 4 11 14 13 12 16 11 12 10 5 2 5 7 4 5 5
Wind_Direction
359 6 9 9 6 5 4 360 356 352 349 344 339 335 332 330 328 327 321 322 320 313 311 314 308 306 263 218 113 110 155 159 154 171 183 179 200 230 300 231 210 221 117 127 131 141 142
359 7 10 7 3 1 359 356 353 351 347 344 341 338 333 329 328 324 319 315 312 307 300 297 282 262 241 224 96 163 159 161 173 181 194 198 341 326 286 319 226 191 161 129 144 144 141
6 8 6 4 360 357 354 352 350 348 347 347 346 341 334 330 328 322 322 313 306 298 287 268 222 195 242 32 117 169 169 173 178 186 189 198 261 284 51 123 60 147 142 136 148 152 149
8 6 2 357 355 353 351 349 349 349 350 350 348 343 336 332 327 322 319 312 306 294 266 203 179 207 254 154 140 162 167 174 182 189 203 265 216 250 262 123 167 192 176 167 157 168 156
4 2 359 356 353 352 352 352 352 351 351 351 349 345 337 331 326 321 318 318 339 91 126 144 164 236 178 155 180 174 179 176 176 191 204 195 237 283 172 218 180 199 247 248 172 192 157
358 357 357 354 354 354 354 354 353 351 351 352 349 345 337 331 327 320 319 107 108 101 118 156 243 221 178 189 162 177 184 175 174 184 197 213 220 165 224 211 219 126 224 216 253 196 216
355 357 355 353 354 354 354 353 353 352 353 353 349 346 338 331 325 318 150 231 205 180 207 259 148 43 140 131 155 180 179 179 190 199 206 196 213 206 203 204 182 182 266 314 215 75 259
359 356 352 356 356 355 354 352 351 352 355 353 349 345 336 331 323 272 167 259 27 358 263 219 231 249 191 185 165 182 177 182 191 200 209 182 230 158 124 201 210 233 249 123 260 141 232
357 356 357 357 357 356 354 353 352 352 352 352 349 344 333 334 318 169 243 338 355 307 252 161 192 217 192 199 199 172 190 203 194 208 196 224 226 150 196 192 234 221 271 34 259 193 228
357 356 357 356 355 355 354 353 353 352 351 351 347 342 331 347 168 225 202 179 305 224 255 148 188 183 181 211 208 178 197 194 209 209 209 231 130 181 199 228 221 257 61 260 194 211 245
354 354 355 354 354 354 353 353 353 351 349 347 344 337 323 296 305 226 112 313 223 219 229 135 144 130 159 194 128 184 196 212 216 214 190 207 206 220 240 249 217 34 177 230 217 238 285
353 352 353 353 353 353 352 352 352 350 348 345 342 331 314 242 212 229 257 276 207 226 210 141 136 174 172 198 185 143 184 229 246 223 211 243 164 243 282 87 214 134 166 189 214 262 242
352 350 352 352 353 352 352 352 351 350 347 343 341 327 212 173 108 201 256 204 212 247 141 153 167 180 192 181 173 169 183 197 195 204 210 212 211 151 177 128 159 206 218 253 210 206 245
349 350 351 352 352 353 353 353 351 349 348 342 342 7 137 191 241 288 212 214 240 49 203 124 175 178 197 181 194 193 190 200 212 211 217 212 189 197 186 228 204 217 297 296 310 288 324
348 350 351 352 352 353 354 353 352 349 348 342 352 124 187 235 222 227 226 217 306 175 32 209 171 186 191 190 217 195 207 210 205 215 223 209 229 157 190 186 239 151 230 307 284 243 256
348 349 351 352 351 352 355 354 353 350 349 345 331 215 93 97 152 225 228 249 187 317 322 219 225 216 191 192 200 203 189 214 209 204 233 227 243 188 162 184 204 260 51 222 213 283 296
348 348 351 351 350 353 356 356 355 352 351 349 243 216 86 195 223 216 226 213 201 149 328 257 220 198 232 183 204 198 190 136 209 195 220 233 210 187 178 216 223 178 221 234 287 282 308
348 348 348 350 352 352 356 356 357 357 354 3 296 219 70 185 214 224 230 210 23 197 249 237 268 292 221 201 204 206 216 194 185 210 204 219 224 225 204 235 240 249 232 230 241 183 237
346 347 348 351 353 354 356 356 358 359 1 333 324 325 96 233 234 210 159 191 242 221 196 258 213 292 222 191 190 209 177 113 186 201 214 207 222 237 212 169 201 226 219 249 247 298 275
350 347 347 351 353 353 356 357 358 358 356 340 288 222 161 207 313 285 209 204 190 152 174 286 271 238 199 183 249 172 161 149 132 209 2 294 230 226 234 226 201 207 215 213 234 239 241
347 345 346 350 354 355 358 359 0 359 356 346 348 68 3 189 193 245 247 3 212 196 198 229 200 254 239 195 174 161 170 151 162 132 202 227 234 241 243 257 244 222 220 208 227 250 268
344 343 343 346 353 356 360 2 4 4 13 1 332 326 232 284 255 237 175 214 232 163 265 184 252 192 239 249 354 153 175 229 125 160 188 201 242 247 245 243 244 248 236 245 225 240 259
343 339 342 344 350 356 1 4 8 11 23 27 22 310 287 129 236 241 222 224 206 215 136 5 300 245 175 78 3 359 335 311 306 268 184 233 231 217 237 218 238 234 237 244 240 227 240
340 343 340 341 349 354 360 6 8 16 30 12 13 298 279 218 254 269 295 267 233 174 277 135 299 262 53 300 267 244 251 250 250 243 243 234 220 230 252 204 236 245 235 221 241 232 232
337 341 339 334 344 349 355 2 5 11 20 24 9 330 320 278 305 224 232 239 223 193 217 255 92 11 307 275 251 237 217 232 227 228 220 226 257 245 238 235 253 231 223 228 237 237 237
331 336 334 327 340 343 347 355 1 3 16 30 19 346 305 302 113 348 252 256 251 232 201 209 199 322 286 258 226 229 222 219 212 163 237 211 229 255 227 250 249 249 224 133 265 246 356
334 333 330 313 334 335 338 343 353 357 7 21 26 7 290 284 96 261 258 298 279 245 266 103 201 210 246 220 230 232 233 233 232 207 177 195 213 223 226 239 245 246 90 233 218 164 35
327 334 332 317 329 328 325 330 339 345 349 13 19 8 341 306 296 247 250 240 215 248 246 110 203 198 200 227 233 207 248 205 245 249 212 201 205 213 233 238 234 61 194 239 56 91 40
328 328 327 313 322 313 313 322 325 327 333 10 314 352 327 267 339 294 273 270 265 282 293 209 350 320 272 239 215 270 226 249 236 228 206 241 229 248 217 226 121 83 99 101 68 99 71
Height
839 835 832 829 827 824 821 817 814 811 808 804 800 796 792 789 786 783 780 778 777 775 774 773 772 772 771 766 755 759 759 763 768 771 771 772 772 771 776 771 770 775 769 768 769 771 774
838 835 832 829 826 823 820 816 813 810 806 803 799 794 790 786 783 780 777 775 774 772 772 771 771 771 771 766 759 761 762 765 767 769 768 769 766 766 770 771 773 767 768 771 772 774 778
838 835 832 829 826 823 819 816 812 808 805 800 796 792 788 783 779 776 774 772 770 769 768 769 769 770 766 754 758 760 763 765 767 767 766 767 770 769 763 772 767 766 781 777 777 778 784
838 835 832 829 826 822 819 815 811 808 803 800 795 790 785 780 776 773 771 768 766 765 765 767 768 771 756 757 759 760 762 765 768 768 768 768 766 763 766 764 773 779 777 796 784 782 784
837 834 831 827 823 820 817 813 810 806 802 798 793 788 783 778 774 771 768 766 764 764 765 767 769 767 754 757 758 759 760 761 766 768 768 768 765 762 768 774 781 784 797 794 794 780 788
837 834 830 826 822 818 814 811 807 804 800 796 791 786 780 775 772 768 766 765 765 765 767 770 769 768 754 751 754 757 759 761 762 764 767 766 763 776 772 792 809 802 802 804 798 784 784
837 834 830 826 822 817 813 808 805 801 797 792 787 782 777 773 769 766 766 767 766 764 762 744 745 749 748 751 755 756 758 760 760 763 774 763 774 779 780 767 772 784 796 787 783 783 790
837 833 829 826 822 817 813 808 804 799 794 789 784 779 774 770 766 764 764 759 759 762 753 746 750 752 752 750 752 752 756 759 764 771 761 772 777 759 759 769 770 774 787 792 796 796 793
836 832 828 824 820 817 813 808 802 797 792 787 781 776 771 768 764 765 764 761 761 761 752 744 744 746 747 750 745 749 749 747 757 763 764 767 759 750 763 768 774 770 780 782 789 792 784
834 831 827 823 819 814 810 805 800 794 789 784 779 773 768 766 768 764 760 761 761 761 752 745 745 740 744 741 750 740 746 744 750 759 757 758 751 761 764 768 769 780 772 778 789 797 809
834 830 826 822 817 812 807 802 797 791 785 780 774 769 765 765 765 762 761 760 760 760 767 738 742 738 734 740 733 745 744 743 753 753 755 763 762 766 767 761 759 774 769 776 780 788 787
833 829 825 821 816 811 806 800 794 788 782 775 769 763 760 761 763 761 760 760 761 764 762 742 734 740 744 737 735 739 744 746 735 748 750 746 742 748 751 756 760 767 776 779 780 783 802
833 829 824 819 815 809 804 798 792 785 778 770 764 758 757 759 756 759 760 757 761 759 731 743 737 734 733 740 739 740 749 753 759 773 769 755 757 752 752 771 768 769 773 794 800 805 798
833 828 823 819 813 808 802 796 789 782 774 766 760 757 757 757 758 758 758 754 765 735 734 729 730 731 739 730 734 737 744 752 741 744 753 768 782 760 749 756 765 771 766 790 815 805 782
832 827 822 818 813 807 801 794 787 779 771 763 758 758 758 758 757 757 752 757 737 737 736 735 733 737 738 732 731 738 739 740 734 733 758 760 765 740 745 747 752 769 782 761 775 762 778
831 827 822 817 812 806 800 793 786 777 768 761 759 756 755 756 756 756 750 750 740 736 736 734 737 726 737 735 740 738 736 726 729 728 726 741 770 741 747 753 757 760 751 776 769 798 804
830 826 822 817 812 806 800 793 785 776 767 760 758 747 756 756 756 749 749 738 741 736 740 738 732 730 723 727 728 731 730 738 725 730 728 734 750 751 748 762 757 767 770 767 760 761 786
829 826 821 816 812 806 800 793 786 777 766 762 756 746 754 755 750 745 741 741 758 736 737 735 734 730 725 722 727 726 728 725 737 726 743 733 740 757 757 734 729 736 747 748 768 779 762
828 825 821 816 811 806 801 794 787 780 773 770 755 749 753 752 746 742 744 742 744 740 741 738 736 736 734 731 740 728 728 737 737 735 735 728 745 758 752 748 744 748 746 740 737 743 766
827 824 821 816 812 807 802 795 788 782 776 773 761 749 748 748 748 742 742 741 745 746 745 744 739 737 735 735 731 740 737 740 739 737 751 739 733 740 750 743 731 753 744 741 740 755 755
826 823 820 816 812 807 802 796 789 782 776 774 763 758 765 746 749 745 747 745 743 747 744 743 743 738 733 736 736 739 737 740 741 746 741 733 742 729 725 724 723 728 736 740 746 738 751
825 822 819 815 811 808 803 798 792 784 777 775 768 767 763 758 758 754 758 745 745 748 749 744 744 743 740 735 742 742 738 737 736 738 735 729 739 733 741 725 725 734 726 725 725 731 734
824 821 818 815 811 808 804 800 795 788 782 778 782 780 773 773 755 754 744 746 747 753 754 752 747 745 743 755 754 749 747 744 744 746 739 735 731 743 746 723 729 743 729 724 720 716 725
822 819 817 814 811 808 805 802 798 794 791 790 790 786 771 754 760 755 760 760 757 759 755 756 754 752 761 758 752 750 747 744 744 743 740 739 740 738 740 731 763 718 695 702 712 708 707
821 818 815 813 811 808 806 804 801 798 795 794 792 788 777 763 766 766 766 762 764 765 761 760 761 764 762 755 750 749 744 747 739 738 737 738 736 742 749 743 726 712 705 712 715 714 697
819 816 814 812 810 808 806 804 802 800 797 796 795 793 787 776 764 773 769 769 761 759 762 762 767 766 760 754 750 758 746 735 734 742 733 732 739 744 737 752 752 714 693 694 697 724 696
817 814 812 810 808 807 805 804 802 801 799 798 797 795 790 779 774 777 770 769 770 766 760 763 765 765 764 754 752 747 741 728 739 736 749 746 745 748 744 743 722 698 696 692 731 723 705
815 812 810 808 807 806 804 803 802 801 800 799 798 797 796 783 777 781 779 776 775 772 763 767 770 765 763 761 750 741 743 730 737 723 722 736 741 734 739 740 746 699 702 715 711 710 712
813 811 808 807 805 804 803 802 801 801 800 799 797 799 798 794 780 785 783 781 781 778 774 770 765 764 754 755 747 739 746 738 736 733 721 732 713 715 714 714 704 702 706 711 708 714 715